Tracking 19795 objects as of 20-Jul-2019
HD Live streaming from Space Station
objects crossing your sky now

FORMOSAT7-3/COSMIC2-3

Track FORMOSAT7-3/COSMIC2-3 now!
10-day predictions


NORAD ID: 44343
Int'l Code: 2019-036E
Perigee: 713.8 km
Apogee: 731.2 km
Inclination: 24.0 °
Period: 99.1 minutes
Semi major axis: 7093 km
RCS: Unknown
Launch date: June 25, 2019
Source: Taiwan (Republic of China) (ROC)
Launch site: AIR FORCE EASTERN TEST RANGE (AFETR)
aabbcc
Your satellite tracking list
Your tracking list is empty




NASA's NSSDC Master Catalog

Two Line Element Set (TLE):
1 44343U 19036E   19200.84313661 +.00000329 +00000-0 +27911-4 0  9999
2 44343 024.0025 050.2515 0012203 104.6428 255.5391 14.53157386003561
Source of the keplerian elements: AFSPC